Weather History for Santa Fe, NM

Change the Weather History Date:

Tuesday, October 1, 2013

  Actual Average Record
Temperature  
Mean Temperature 63 °F -  
Max Temperature 78 °F 84 °F 89 °F (2010)
Min Temperature 48 °F 39 °F 37 °F (1980)
Degree Days  
Heating Degree Days 2    
Growing Degree Days 13 (Base 50)    
Moisture  
Dew Point 26 °F    
Average Humidity 28    
Maximum Humidity 50    
Minimum Humidity 13    
Precipitation  
Precipitation 0.00 in - - ()
Sea Level Pressure  
Sea Level Pressure 29.85 in    
Wind  
Wind Speed 9 mph (NW)    
Max Wind Speed 14 mph    
Max Gust Speed -    
Visibility 10 miles    
Events      
Averages and records for this station are not official NWS values.
T = Trace of Precipitation, MM = Missing Value Source: NWS Daily Summary

Daily Weather History Graph

Daily Weather History Graph

Search for Another Location

Airport:

Trip Planner

Search our weather history database for the weather conditions in past years. The results will help you decide how hot, cold, wet, or windy it might be!

Date:

Astronomy

Oct. 01, 2013 Rise Set
Actual Time 6:59 AM MDT 6:47 PM MDT
Civil Twilight 6:34 AM MDT 7:13 PM MDT
Nautical Twilight 6:04 AM MDT 7:42 PM MDT
Astronomical Twilight 5:34 AM MDT 8:12 PM MDT
Moon 3:42 AM MDT (10/1) 4:48 PM MDT (10/1)
Length of Visible Light 12h 39m
Length of Day
11h 48m
Waning Crescent, 11% of the Moon is Illuminated
Oct 1
Waning Crescent
Oct 4
New
Oct 11
First Quarter
Oct 18
Full
Oct 26
Last Quarter

Hourly Weather History & Observations

Time (MDT) Temp. Dew Point Humidity Pressure Visibility Wind Dir Wind Speed Gust Speed Precip Events Conditions
12:53 AM 55.9 °F 24.1 °F 29% 29.80 in 10.0 mi North 9.2 mph - N/A   Clear
1:53 AM 55.0 °F 25.0 °F 31% 29.81 in 10.0 mi North 9.2 mph - N/A   Clear
2:53 AM 54.0 °F 24.1 °F 31% 29.81 in 10.0 mi North 9.2 mph - N/A   Clear
3:53 AM 51.1 °F 26.1 °F 38% 29.81 in 10.0 mi North 11.5 mph - N/A   Clear
4:53 AM 50.0 °F 26.1 °F 39% 29.81 in 10.0 mi North 8.1 mph - N/A   Clear
5:53 AM 52.0 °F 26.1 °F 37% 29.82 in 10.0 mi North 11.5 mph - N/A   Clear
6:53 AM 48.9 °F 27.0 °F 43% 29.86 in 10.0 mi North 12.7 mph - N/A   Clear
7:53 AM 51.1 °F 28.0 °F 41% 29.88 in 10.0 mi North 11.5 mph - N/A   Clear
8:53 AM 57.0 °F 30.0 °F 36% 29.91 in 10.0 mi North 12.7 mph - N/A   Clear
9:53 AM 63.0 °F 30.0 °F 29% 29.91 in 10.0 mi North 13.8 mph - N/A   Clear
10:53 AM 68.0 °F 28.9 °F 23% 29.89 in 10.0 mi NNW 6.9 mph - N/A   Clear
11:53 AM 72.0 °F 28.0 °F 20% 29.88 in 10.0 mi NW 9.2 mph - N/A   Clear
12:53 PM 73.9 °F 28.0 °F 18% 29.86 in 10.0 mi Variable 4.6 mph - N/A   Clear
1:53 PM 75.9 °F 30.0 °F 19% 29.83 in 10.0 mi WSW 10.4 mph - N/A   Clear
2:53 PM 75.9 °F 25.0 °F 15% 29.82 in 10.0 mi WSW 10.4 mph - N/A   Clear
3:53 PM 78.1 °F 26.1 °F 15% 29.81 in 10.0 mi WSW 12.7 mph - N/A   Clear
4:53 PM 78.1 °F 25.0 °F 14% 29.80 in 10.0 mi WSW 11.5 mph - N/A   Clear
5:53 PM 75.9 °F 21.9 °F 13% 29.80 in 10.0 mi SW 9.2 mph - N/A   Clear
6:53 PM 68.0 °F 21.0 °F 17% 29.84 in 10.0 mi SW 6.9 mph - N/A   Clear
7:53 PM 64.9 °F 21.9 °F 19% 29.86 in 10.0 mi SSW 3.5 mph - N/A   Clear
8:53 PM 64.0 °F 21.0 °F 19% 29.86 in 10.0 mi Calm Calm - N/A   Clear
9:53 PM 54.0 °F 27.0 °F 35% 29.88 in 10.0 mi Calm Calm - N/A   Clear
10:53 PM 48.9 °F 30.9 °F 50% 29.88 in 10.0 mi North 4.6 mph - N/A   Clear
11:53 PM 48.0 °F 28.9 °F 48% 29.88 in 10.0 mi North 4.6 mph - N/A   Clear